(°C)
11°
10°
(°C)
SSO
SSO
SSO
SSO
S
S
S
(km/h)
25-35
23-32
21-31
20-30
19-29
18-29
17-24
(mm)
0
0
0
0
0
0
0
(%)
0
0
0
0
0
0
0

Elevação do sol

/ -45.5°
sun-icon
UV 2
08:06
18:29
Minguante gibosa (201°)
19:15
09:48

METAR para 51.15°N 51.54°L (UARR)

Hora Condições Temperatura/
Ponto de condensação
Vento Visibilidade Tempo Nuvens Pressão Mudança Bruto
VFR 11°C / 4°C 230º 16kt >10km - Clouds and Visibility OK 1012 No Significant change UARR 221830Z 23008MPS CAVOK 11/04 Q1012 R22/CLRD70 NOSIG RMK QFE755/1007
VFR 12°C / 4°C 230º 17kt >10km - Clouds and Visibility OK 1012 No Significant change UARR 221800Z 23009MPS CAVOK 12/04 Q1012 R22/CLRD70 NOSIG RMK QFE755/1007
VFR 12°C / 4°C 230º 17kt >10km - Clouds and Visibility OK 1012 No Significant change UARR 221730Z 23009MPS CAVOK 12/04 Q1012 R22/CLRD70 NOSIG RMK QFE755/1007
VFR 12°C / 5°C 230º 16kt >10km - Clouds and Visibility OK 1012 No Significant change UARR 221700Z 23008MPS CAVOK 12/05 Q1012 R22/CLRD70 NOSIG RMK QFE755/1007
VFR 12°C / 5°C 230º 14kt >10km - Clouds and Visibility OK 1012 No Significant change UARR 221630Z 23007MPS CAVOK 12/05 Q1012 R22/CLRD70 NOSIG RMK QFE755/1007
VFR 13°C / 6°C 230º 14kt >10km - Clouds and Visibility OK 1012 No Significant change UARR 221600Z 23007MPS CAVOK 13/06 Q1012 R22/CLRD70 NOSIG RMK QFE755/1007
VFR 13°C / 5°C 230º 14kt >10km - Clouds and Visibility OK 1012 No Significant change UARR 221530Z 23007MPS CAVOK 13/05 Q1012 R22/CLRD70 NOSIG RMK QFE755/1007
VFR 13°C / 5°C 230º 16kt >10km - Clouds and Visibility OK 1012 No Significant change UARR 221500Z 23008MPS CAVOK 13/05 Q1012 R22/CLRD70 NOSIG RMK QFE755/1007
VFR 14°C / 5°C 230º 19kt >10km - Clouds and Visibility OK 1011 No Significant change UARR 221430Z 23010MPS CAVOK 14/05 Q1011 R22/CLRD70 NOSIG RMK QFE755/1006
VFR 15°C / 5°C 230º 21kt >10km - Clouds and Visibility OK 1011 No Significant change UARR 221400Z 23011MPS CAVOK 15/05 Q1011 R22/CLRD70 NOSIG RMK QFE754/1006
VFR 15°C / 5°C 220º 21kt >10km - Clouds and Visibility OK 1010 No Significant change UARR 221330Z 22011MPS CAVOK 15/05 Q1010 R22/CLRD70 NOSIG RMK QFE754/1005
VFR 15°C / 5°C 220º 19kt >10km - Clouds and Visibility OK 1010 No Significant change UARR 221300Z 22010MPS CAVOK 15/05 Q1010 R22/CLRD70 NOSIG RMK QFE754/1005
VFR 16°C / 5°C 230º 23kt >10km - Clouds and Visibility OK 1010 No Significant change UARR 221230Z 23012MPS CAVOK 16/05 Q1010 R22/CLRD70 NOSIG RMK QFE754/1005
VFR 16°C / 5°C 230º 19kt >10km - Clouds and Visibility OK 1010 No Significant change UARR 221200Z 23010MPS CAVOK 16/05 Q1010 R22/CLRD70 NOSIG RMK QFE754/1005
VFR 16°C / 5°C 220º 21kt Gust 31kt >10km - Clouds and Visibility OK 1010 No Significant change UARR 221130Z 22011G16MPS CAVOK 16/05 Q1010 R22/CLRD70 NOSIG RMK QFE754/1005
VFR 16°C / 5°C 230º 21kt Gust 33kt >10km - Clouds and Visibility OK 1010 No Significant change UARR 221104Z 23011G17MPS CAVOK 16/05 Q1010 R22/CLRD70 NOSIG RMK QFE754/1005
VFR 16°C / 5°C 230º 25kt >10km - Clouds and Visibility OK 1010 No Significant change UARR 221030Z 23013MPS CAVOK 16/05 Q1010 R22/CLRD70 NOSIG RMK QFE754/1005
VFR 15°C / 6°C 220º 21kt >10km - Clouds and Visibility OK 1010 No Significant change UARR 221000Z 22011MPS CAVOK 15/06 Q1010 R22/CLRD70 NOSIG RMK QFE754/1005
VFR 14°C / 6°C 220º 23kt >10km - Clouds and Visibility OK 1010 No Significant change UARR 220930Z 22012MPS CAVOK 14/06 Q1010 R22/CLRD70 NOSIG RMK QFE754/1006
VFR 14°C / 6°C 220º 21kt >10km - Clouds and Visibility OK 1011 No Significant change UARR 220900Z 22011MPS CAVOK 14/06 Q1011 R22/CLRD70 NOSIG RMK QFE754/1006
VFR 13°C / 6°C 220º 17kt >10km - Clouds and Visibility OK 1011 No Significant change UARR 220830Z 22009MPS CAVOK 13/06 Q1011 R22/CLRD70 NOSIG RMK QFE755/1006
VFR 12°C / 6°C 230º 17kt >10km - Clouds and Visibility OK 1011 No Significant change UARR 220800Z 23009MPS CAVOK 12/06 Q1011 R22/CLRD70 NOSIG RMK QFE755/1006
VFR 11°C / 5°C 230º 19kt >10km - Clouds and Visibility OK 1011 No Significant change UARR 220730Z 23010MPS CAVOK 11/05 Q1011 R22/CLRD70 NOSIG RMK QFE755/1006
VFR 11°C / 5°C 230º 17kt >10km - Clouds and Visibility OK 1011 No Significant change UARR 220700Z 23009MPS CAVOK 11/05 Q1011 R22/CLRD70 NOSIG RMK QFE755/1006

VFR

11°C / 4°C

[Mais]
Vento 230º 16kt
Visibilidade >10km
Tempo -
Nuvens Clouds and Visibility OK
Pressão 1012
Mudança No Significant change
Bruto UARR 221830Z 23008MPS CAVOK 11/04 Q1012 R22/CLRD70 NOSIG RMK QFE755/1007

VFR

12°C / 4°C

[Mais]
Vento 230º 17kt
Visibilidade >10km
Tempo -
Nuvens Clouds and Visibility OK
Pressão 1012
Mudança No Significant change
Bruto UARR 221800Z 23009MPS CAVOK 12/04 Q1012 R22/CLRD70 NOSIG RMK QFE755/1007

VFR

12°C / 4°C

[Mais]
Vento 230º 17kt
Visibilidade >10km
Tempo -
Nuvens Clouds and Visibility OK
Pressão 1012
Mudança No Significant change
Bruto UARR 221730Z 23009MPS CAVOK 12/04 Q1012 R22/CLRD70 NOSIG RMK QFE755/1007

VFR

12°C / 5°C

[Mais]
Vento 230º 16kt
Visibilidade >10km
Tempo -
Nuvens Clouds and Visibility OK
Pressão 1012
Mudança No Significant change
Bruto UARR 221700Z 23008MPS CAVOK 12/05 Q1012 R22/CLRD70 NOSIG RMK QFE755/1007

VFR

12°C / 5°C

[Mais]
Vento 230º 14kt
Visibilidade >10km
Tempo -
Nuvens Clouds and Visibility OK
Pressão 1012
Mudança No Significant change
Bruto UARR 221630Z 23007MPS CAVOK 12/05 Q1012 R22/CLRD70 NOSIG RMK QFE755/1007

VFR

13°C / 6°C

[Mais]
Vento 230º 14kt
Visibilidade >10km
Tempo -
Nuvens Clouds and Visibility OK
Pressão 1012
Mudança No Significant change
Bruto UARR 221600Z 23007MPS CAVOK 13/06 Q1012 R22/CLRD70 NOSIG RMK QFE755/1007

VFR

13°C / 5°C

[Mais]
Vento 230º 14kt
Visibilidade >10km
Tempo -
Nuvens Clouds and Visibility OK
Pressão 1012
Mudança No Significant change
Bruto UARR 221530Z 23007MPS CAVOK 13/05 Q1012 R22/CLRD70 NOSIG RMK QFE755/1007

VFR

13°C / 5°C

[Mais]
Vento 230º 16kt
Visibilidade >10km
Tempo -
Nuvens Clouds and Visibility OK
Pressão 1012
Mudança No Significant change
Bruto UARR 221500Z 23008MPS CAVOK 13/05 Q1012 R22/CLRD70 NOSIG RMK QFE755/1007

VFR

14°C / 5°C

[Mais]
Vento 230º 19kt
Visibilidade >10km
Tempo -
Nuvens Clouds and Visibility OK
Pressão 1011
Mudança No Significant change
Bruto UARR 221430Z 23010MPS CAVOK 14/05 Q1011 R22/CLRD70 NOSIG RMK QFE755/1006

VFR

15°C / 5°C

[Mais]
Vento 230º 21kt
Visibilidade >10km
Tempo -
Nuvens Clouds and Visibility OK
Pressão 1011
Mudança No Significant change
Bruto UARR 221400Z 23011MPS CAVOK 15/05 Q1011 R22/CLRD70 NOSIG RMK QFE754/1006

VFR

15°C / 5°C

[Mais]
Vento 220º 21kt
Visibilidade >10km
Tempo -
Nuvens Clouds and Visibility OK
Pressão 1010
Mudança No Significant change
Bruto UARR 221330Z 22011MPS CAVOK 15/05 Q1010 R22/CLRD70 NOSIG RMK QFE754/1005

VFR

15°C / 5°C

[Mais]
Vento 220º 19kt
Visibilidade >10km
Tempo -
Nuvens Clouds and Visibility OK
Pressão 1010
Mudança No Significant change
Bruto UARR 221300Z 22010MPS CAVOK 15/05 Q1010 R22/CLRD70 NOSIG RMK QFE754/1005

VFR

16°C / 5°C

[Mais]
Vento 230º 23kt
Visibilidade >10km
Tempo -
Nuvens Clouds and Visibility OK
Pressão 1010
Mudança No Significant change
Bruto UARR 221230Z 23012MPS CAVOK 16/05 Q1010 R22/CLRD70 NOSIG RMK QFE754/1005

VFR

16°C / 5°C

[Mais]
Vento 230º 19kt
Visibilidade >10km
Tempo -
Nuvens Clouds and Visibility OK
Pressão 1010
Mudança No Significant change
Bruto UARR 221200Z 23010MPS CAVOK 16/05 Q1010 R22/CLRD70 NOSIG RMK QFE754/1005

VFR

16°C / 5°C

[Mais]
Vento 220º 21kt Gust 31kt
Visibilidade >10km
Tempo -
Nuvens Clouds and Visibility OK
Pressão 1010
Mudança No Significant change
Bruto UARR 221130Z 22011G16MPS CAVOK 16/05 Q1010 R22/CLRD70 NOSIG RMK QFE754/1005

VFR

16°C / 5°C

[Mais]
Vento 230º 21kt Gust 33kt
Visibilidade >10km
Tempo -
Nuvens Clouds and Visibility OK
Pressão 1010
Mudança No Significant change
Bruto UARR 221104Z 23011G17MPS CAVOK 16/05 Q1010 R22/CLRD70 NOSIG RMK QFE754/1005

VFR

16°C / 5°C

[Mais]
Vento 230º 25kt
Visibilidade >10km
Tempo -
Nuvens Clouds and Visibility OK
Pressão 1010
Mudança No Significant change
Bruto UARR 221030Z 23013MPS CAVOK 16/05 Q1010 R22/CLRD70 NOSIG RMK QFE754/1005

VFR

15°C / 6°C

[Mais]
Vento 220º 21kt
Visibilidade >10km
Tempo -
Nuvens Clouds and Visibility OK
Pressão 1010
Mudança No Significant change
Bruto UARR 221000Z 22011MPS CAVOK 15/06 Q1010 R22/CLRD70 NOSIG RMK QFE754/1005

VFR

14°C / 6°C

[Mais]
Vento 220º 23kt
Visibilidade >10km
Tempo -
Nuvens Clouds and Visibility OK
Pressão 1010
Mudança No Significant change
Bruto UARR 220930Z 22012MPS CAVOK 14/06 Q1010 R22/CLRD70 NOSIG RMK QFE754/1006

VFR

14°C / 6°C

[Mais]
Vento 220º 21kt
Visibilidade >10km
Tempo -
Nuvens Clouds and Visibility OK
Pressão 1011
Mudança No Significant change
Bruto UARR 220900Z 22011MPS CAVOK 14/06 Q1011 R22/CLRD70 NOSIG RMK QFE754/1006

VFR

13°C / 6°C

[Mais]
Vento 220º 17kt
Visibilidade >10km
Tempo -
Nuvens Clouds and Visibility OK
Pressão 1011
Mudança No Significant change
Bruto UARR 220830Z 22009MPS CAVOK 13/06 Q1011 R22/CLRD70 NOSIG RMK QFE755/1006

VFR

12°C / 6°C

[Mais]
Vento 230º 17kt
Visibilidade >10km
Tempo -
Nuvens Clouds and Visibility OK
Pressão 1011
Mudança No Significant change
Bruto UARR 220800Z 23009MPS CAVOK 12/06 Q1011 R22/CLRD70 NOSIG RMK QFE755/1006

VFR

11°C / 5°C

[Mais]
Vento 230º 19kt
Visibilidade >10km
Tempo -
Nuvens Clouds and Visibility OK
Pressão 1011
Mudança No Significant change
Bruto UARR 220730Z 23010MPS CAVOK 11/05 Q1011 R22/CLRD70 NOSIG RMK QFE755/1006

VFR

11°C / 5°C

[Mais]
Vento 230º 17kt
Visibilidade >10km
Tempo -
Nuvens Clouds and Visibility OK
Pressão 1011
Mudança No Significant change
Bruto UARR 220700Z 23009MPS CAVOK 11/05 Q1011 R22/CLRD70 NOSIG RMK QFE755/1006

TAF para 51.15°N 51.54°L (UARR)

From till


From till Wind 220º 12kt. Gust 25kt. Visibility 10km or more. Scattered Clouds 2000ft.

Bruto: TAF UARR 221700Z 2218/2303 22006G13MPS 9999 SCT020

Imagens atuais de satélite e precipitação para 51.15°N 51.54°L

O marcador de lugar é colocado em 51.15°N 51.54°L. [Mais]

A imagem de satélite em tempo real combina luz visível durante o dia com radiação infravermelha durante a noite. À noite, a imagem não é escura, pois a radiação infravermelha pode detectar diferenças de temperatura. Infelizmente, nuvens baixas e neblina são difíceis de distinguir das temperaturas do solo e, portanto, podem ser quase invisíveis durante a noite. As imagens de satélite Meteosat para a Europa são atualizadas em tempo real a cada 5 minutos. GOES-16/GOES-17 ( América do Norte e do Sul) e Himawari (Ásia) são atualizadas a cada 10 minutos.

Copyright 2021 EUMETSAT / meteoblue. / Copyright 2021 meteoblue

Radar e precipitação nowcast para 51.15°N 51.54°L

Chuvisco
Leve
Moderado
Forte
Muito forte
Granizo

O marcador do lugar é colocado em 51.15°N 51.54°L. Esta animação mostra o radar de precipitação para a última hora, assim como a 1h previsão. A queda de neve pode ser invisível para o radar. A intensidade da precipitação é codificada por cores, variando do azul claro ao laranja.